Home   Weather   Knittelfeld   Past weeks
Flag for Austria

Past Weather in Knittelfeld, Styria, Austria — Yesterday and Last 2 Weeks

Now
52 °F

Passing clouds.


Feels Like: 49 °F
Forecast: 57 / 50 °F
Wind: 7 mph from West

Location: Zeltweg

Current Time: Oct 16, 2019 at 12:08:13 am

Latest Report: Oct 15, 2019 at 10:50 pm


Visibility: 19 mi

Pressure: 29.89 "Hg (27.67 "Hg at 641m altitude)

Humidity: 88%

Dew Point: 48 °F

Location of KnittelfeldLocation

Past Weather in Knittelfeld — Graph

°F

Knittelfeld Temperature Yesterday

Maximum temperature yesterday: 70 °F (at 1:50 pm)
Minimum temperature yesterday: 41 °F (at 7:20 am)
Average temperature yesterday: 59 °F

High & Low Weather Summary for the Past Weeks

 TemperatureHumidityPressure
High72 °F (Oct 1, 2:50 pm)100% (Oct 2, 6:50 am)30.30 "Hg (Oct 2, 6:50 am)
Low30 °F (Oct 4, 6:50 am)41% (Oct 4, 2:50 pm)29.68 "Hg (Oct 2, 6:50 am)
Average51 °F75%30.00 "Hg
* Reported Sep 30 10:50 pm — Oct 15 10:50 pm, Knittelfeld. Weather by CustomWeather, © 2019

Note: Actual official high and low records may vary slightly from our data, if they occured in-between our weather recording intervals... More about our weather records

Advertising

Knittelfeld Weather History for the Previous 24 Hours

Scroll right to see more
 ConditionsComfort  
Time TempWeatherWind HumidityBarometerVisibility
10:50 pm
Tue, Oct 15
52 °FPassing clouds.7 mph88%29.89 "Hg19 mi
9:50 pm59 °FPassing clouds.7 mph68%29.89 "Hg19 mi
8:50 pm59 °FPassing clouds.7 mph68%29.89 "Hg19 mi
8:20 pm55 °FPassing clouds.7 mph77%29.86 "Hg19 mi
7:50 pm61 °FPassing clouds.2 mph63%29.86 "Hg19 mi
7:20 pm63 °FPassing clouds.10 mph59%29.86 "Hg19 mi
6:50 pm63 °FPassing clouds.14 mph59%29.86 "Hg22 mi
6:20 pm64 °FMild.13 mph56%29.83 "Hg25 mi
5:50 pm64 °FScattered clouds.9 mph56%29.83 "Hg31 mi
5:20 pm66 °FPassing clouds.10 mph52%29.83 "Hg31 mi
4:50 pm68 °FScattered clouds.12 mph49%29.86 "Hg31 mi
4:20 pm68 °FScattered clouds.17 mph49%29.86 "Hg31 mi
3:50 pm70 °FScattered clouds.14 mph50%29.86 "Hg31 mi
3:20 pm70 °FScattered clouds.15 mph50%29.86 "Hg31 mi
2:50 pm70 °FScattered clouds.16 mph46%29.86 "Hg31 mi
2:20 pm70 °FScattered clouds.16 mph46%29.86 "Hg31 mi
1:50 pm70 °FPassing clouds.10 mph46%29.89 "Hg31 mi
1:20 pm68 °FPassing clouds.6 mph46%29.92 "Hg31 mi
12:50 pm68 °FPassing clouds.9 mph46%29.92 "Hg31 mi
12:20 pm68 °FPassing clouds.12 mph46%29.92 "Hg31 mi
11:50 am66 °FPassing clouds.13 mph46%29.92 "Hg31 mi
11:20 am64 °FPassing clouds.13 mph52%29.92 "Hg31 mi
10:50 am63 °FPassing clouds.14 mph56%29.95 "Hg25 mi
10:20 am59 °FPassing clouds.5 mph72%29.95 "Hg25 mi
9:50 am54 °FPassing clouds.2 mph77%29.95 "Hg25 mi
9:20 am50 °FPassing clouds.1 mph88%29.95 "Hg19 mi
8:50 am46 °FPassing clouds.1 mph100%29.95 "Hg19 mi
8:20 am43 °FScattered clouds.2 mph100%30.15 "Hg9 mi
7:50 am41 °FFog.1 mph100%29.95 "Hg1 mi
7:20 am41 °FFog.2 mph100%29.95 "Hg0 mi
6:50 am43 °FSleet. Passing clouds.1 mph100%29.95 "Hg5 mi
5:50 am43 °FFog.2 mph100%29.98 "Hg6 mi
4:50 am45 °FFog.1 mph93%29.98 "Hg6 mi
1:50 am45 °FFog.1 mph93%30.01 "Hg3 mi
Weather by CustomWeather, © 2019

See weather overview